TimeMST,TemperatureF,Dew PointF,Humidity,Sea Level PressureIn,VisibilityMPH,Wind Direction,Wind SpeedMPH,Gust SpeedMPH,PrecipitationIn,Events,Conditions,WindDirDegrees,DateUTC
12:57 AM,50.0,48.0,93,30.08,10.0,Calm,Calm,-,0.01,,Partly Cloudy,0,2011-10-02 07:57:00
1:57 AM,48.0,46.9,96,30.09,10.0,Calm,Calm,-,N/A,,Clear,0,2011-10-02 08:57:00
2:57 AM,45.0,44.1,97,30.11,9.0,Calm,Calm,-,N/A,,Clear,0,2011-10-02 09:57:00
3:57 AM,43.0,42.1,97,30.12,10.0,Calm,Calm,-,N/A,,Clear,0,2011-10-02 10:57:00
4:57 AM,41.0,41.0,100,30.14,9.0,Calm,Calm,-,N/A,,Clear,0,2011-10-02 11:57:00
5:57 AM,39.2,39.2,100,30.16,10.0,Calm,Calm,-,N/A,,Clear,0,2011-10-02 12:57:00
6:57 AM,42.1,41.0,96,30.20,10.0,Calm,Calm,-,N/A,,Clear,0,2011-10-02 13:57:00
7:57 AM,50.0,46.9,89,30.16,10.0,Calm,Calm,-,N/A,,Clear,0,2011-10-02 14:57:00
8:57 AM,60.1,46.9,62,30.15,10.0,Calm,Calm,-,N/A,,Clear,0,2011-10-02 15:57:00
9:57 AM,63.0,46.0,54,30.14,10.0,Variable,4.6,-,N/A,,Clear,0,2011-10-02 16:57:00
10:57 AM,64.0,43.0,46,30.12,10.0,WSW,4.6,-,N/A,,Clear,250,2011-10-02 17:57:00
11:57 AM,68.0,41.0,37,30.09,10.0,SSW,10.4,16.1,N/A,,Partly Cloudy,200,2011-10-02 18:57:00
12:57 PM,64.9,42.1,43,30.09,10.0,Calm,Calm,-,N/A,,Overcast,0,2011-10-02 19:57:00
1:57 PM,63.0,46.9,56,30.09,10.0,ENE,12.7,19.6,N/A,,Overcast,60,2011-10-02 20:57:00
2:57 PM,57.0,50.0,77,30.13,3.0,North,10.4,-,0.02,Rain,Heavy Rain,360,2011-10-02 21:57:00
3:00 PM,55.4,50.0,82,30.32,1.8,Variable,4.6,-,0.06,Rain,Heavy Rain,0,2011-10-02 22:00:00
3:12 PM,53.6,48.2,82,30.34,5.0,West,9.2,-,0.28,Rain-Thunderstorm,Thunderstorms and Rain,260,2011-10-02 22:12:00
3:21 PM,53.6,46.4,77,30.32,2.0,SSW,16.1,24.2,0.34,Rain,Rain,200,2011-10-02 22:21:00
3:28 PM,53.6,46.4,77,30.32,5.0,SSE,11.5,20.7,0.35,Rain-Thunderstorm,Light Thunderstorms and Rain,150,2011-10-02 22:28:00
3:35 PM,53.6,46.4,77,30.32,10.0,East,5.8,-,0.35,Rain,Light Rain,100,2011-10-02 22:35:00
3:57 PM,54.0,48.9,83,30.14,10.0,East,5.8,-,0.35,,Overcast,90,2011-10-02 22:57:00
4:57 PM,62.1,50.0,65,30.11,10.0,Calm,Calm,-,N/A,,Clear,0,2011-10-02 23:57:00
5:57 PM,54.0,52.0,93,30.14,10.0,Calm,Calm,-,N/A,,Clear,0,2011-10-03 00:57:00
6:57 PM,50.0,48.9,96,30.15,10.0,Calm,Calm,-,N/A,,Clear,0,2011-10-03 01:57:00
7:57 PM,48.9,46.9,93,30.12,10.0,Calm,Calm,-,N/A,,Clear,0,2011-10-03 02:57:00
8:57 PM,46.4,46.4,100,30.31,10.0,Calm,Calm,-,N/A,,Clear,0,2011-10-03 03:57:00
9:57 PM,46.0,45.0,96,30.10,10.0,Calm,Calm,-,N/A,,Clear,0,2011-10-03 04:57:00
10:57 PM,44.1,43.0,96,30.11,10.0,Calm,Calm,-,N/A,,Clear,0,2011-10-03 05:57:00
11:57 PM,43.0,42.1,97,30.08,10.0,Calm,Calm,-,N/A,,Clear,0,2011-10-03 06:57:00